Вернуться в каталог

USA 434

АктивенВоенныеVLEO
NORAD 61657·PAYLOAD·🇺🇸 United States

Запущен Oct 24, 2024 с Vandenberg Space Force Base

Loading…

Ближайшие Пролёты (ближайшие 24 часа)

TLE

УстаревшееSource: Mike McCants

Эпоха: Aug 3, 2026, 21:21 UTC

1 61657U 24192P   26215.88975422 0.00000000  00000-0  00000-0 0    07
2 61657  70.0210 132.2723 0002000 171.2608 188.7391 14.96713436    05

Отслеживайте USA 434 в реальном времени с AllMySat

Download on the App Store